EW6058 Weather Reports


Display with metric or nautical units.
time (UTC)temp
F
wind
direction
speed
MPH
gust
MPH
rain 1hr
in
rain 24hr
in
rain mn
in
humidity
%
barometer
mb
20260505173019 64 162 1.0 7.0 0.00 0.00 0.00 67 1012.7
20260505172504 65 154 3.0 7.0 0.00 0.00 0.00 65 1012.7
20260505172005 65 168 2.0 8.0 0.00 0.00 0.00 66 1012.8
20260505171506 65 203 1.0 8.0 0.00 0.00 0.00 65 1012.8
20260505171002 65 168 1.0 3.0 0.00 0.00 0.00 67 1012.9
20260505170503 66 198 1.0 3.0 0.00 0.00 0.00 66 1013.0
20260505170010 65 359 1.0 5.0 0.00 0.00 0.00 66 1013.1
20260505165503 65 274 1.0 5.0 0.00 0.00 0.00 66 1013.1
20260505165003 66 156 2.0 4.0 0.00 0.00 0.00 66 1013.1
20260505164512 66 168 2.0 3.0 0.00 0.00 0.00 65 1013.1
20260505164006 66 166 1.0 5.0 0.00 0.00 0.00 65 1013.2
20260505163508 65 153 1.0 5.0 0.00 0.00 0.00 67 1013.1
20260505163021 65 152 1.0 8.0 0.00 0.00 0.00 68 1013.3
20260505162508 65 159 2.0 8.0 0.00 0.00 0.00 67 1013.4
20260505162007 65 150 2.0 7.0 0.00 0.00 0.00 66 1013.3
20260505161522 65 173 2.0 7.0 0.00 0.00 0.00 67 1013.2
20260505161003 65 162 2.0 5.0 0.00 0.00 0.00 67 1013.3
20260505160503 65 194 2.0 5.0 0.00 0.00 0.00 67 1013.3
20260505153015 65 176 2.0 5.0 0.00 0.00 0.00 67 1013.5
20260505152509 65 142 2.0 5.0 0.00 0.00 0.00 68 1013.5
20260505152007 64 195 2.0 5.0 0.00 0.00 0.00 68 1013.6
20260505151521 65 163 3.0 5.0 0.00 0.00 0.00 67 1013.6
20260505151007 65 198 2.0 4.0 0.00 0.00 0.00 66 1013.5
20260505150508 65 168 1.0 5.0 0.00 0.00 0.00 67 1013.4
20260505140506 62 188 3.0 6.0 0.00 0.00 0.00 72 1013.2
20260505125014 60 154 1.0 5.0 0.00 0.00 0.00 75 1013.2
20260505124523 60 148 2.0 5.0 0.00 0.00 0.00 76 1013.1
20260505124012 60 167 1.0 4.0 0.00 0.00 0.00 77 1013.0
20260505123515 59 182 1.0 4.0 0.00 0.00 0.00 78 1012.9
20260505123028 59 154 1.0 4.0 0.00 0.00 0.00 78 1012.9
20260505122508 59 186 1.0 4.0 0.00 0.00 0.00 79 1012.8
20260505122008 58 105 2.0 4.0 0.00 0.00 0.00 79 1012.8
20260505121514 58 169 1.0 6.0 0.00 0.00 0.00 79 1012.9
20260505121007 58 150 1.0 6.0 0.00 0.00 0.00 80 1012.9
20260505120510 57 141 2.0 5.0 0.00 0.00 0.00 79 1012.9
20260505120019 57 141 1.0 5.0 0.00 0.00 0.00 79 1012.9
20260505115508 57 189 1.0 6.0 0.00 0.00 0.00 81 1013.0
20260505115009 57 162 1.0 6.0 0.00 0.00 0.00 80 1012.8
20260505114522 57 183 1.0 5.0 0.00 0.00 0.00 81 1012.8
20260505114011 56 170 1.0 5.0 0.00 0.00 0.00 82 1012.8
20260505113512 56 136 1.0 3.0 0.00 0.00 0.00 83 1012.8
20260505113026 56 165 1.0 3.0 0.00 0.00 0.00 83 1012.9
20260505112512 55 206 1.0 3.0 0.00 0.00 0.00 84 1012.8
20260505112011 55 170 1.0 3.0 0.00 0.00 0.00 84 1012.8
20260505111526 54 181 1.0 3.0 0.00 0.00 0.00 85 1012.9
20260505111005 54 182 1.0 3.0 0.00 0.00 0.00 86 1012.8
20260505110508 54 182 1.0 3.0 0.00 0.00 0.00 86 1012.9
20260505102005 49 56 0.0 2.0 0.00 0.00 0.00 92 1012.6
20260505101504 49 56 1.0 2.0 0.00 0.00 0.00 92 1012.5
20260505101004 49 251 0.0 2.0 0.00 0.00 0.00 91 1012.5
20260505100503 49 252 0.0 2.0 0.00 0.00 0.00 91 1012.4
20260505100004 49 159 0.0 2.0 0.00 0.00 0.00 91 1012.4
20260505095507 49 159 0.0 2.0 0.00 0.00 0.00 90 1012.4
20260505095003 49 159 0.0 2.0 0.00 0.00 0.00 90 1012.3
20260505094504 49 159 0.0 2.0 0.00 0.00 0.00 90 1012.4
20260505094002 49 159 0.0 2.0 0.00 0.00 0.00 90 1012.5
20260505093502 50 163 0.0 2.0 0.00 0.00 0.00 90 1012.4
20260505093004 49 163 0.0 2.0 0.00 0.00 0.00 90 1012.4
20260505092504 49 163 0.0 2.0 0.00 0.00 0.00 90 1012.5
20260505092004 49 160 0.0 2.0 0.00 0.00 0.00 91 1012.6
20260505091506 49 154 0.0 2.0 0.00 0.00 0.00 91 1012.5
20260505091007 49 165 0.0 2.0 0.00 0.00 0.00 90 1012.3
20260505090504 49 165 0.0 2.0 0.00 0.00 0.00 91 1012.3
20260505090007 49 179 0.0 2.0 0.00 0.00 0.00 91 1012.3
20260505085504 49 179 0.0 2.0 0.00 0.00 0.00 91 1012.4
20260505085004 49 179 0.0 2.0 0.00 0.00 0.00 91 1012.4
20260505084506 48 179 0.0 2.0 0.00 0.00 0.00 91 1012.4
20260505084004 48 161 0.0 2.0 0.00 0.00 0.00 91 1012.4
20260505083504 48 160 0.0 2.0 0.00 0.00 0.00 91 1012.5
20260505083006 48 176 0.0 2.0 0.00 0.00 0.00 90 1012.4
20260505082508 48 176 0.0 2.0 0.00 0.00 0.00 90 1012.5
20260505082004 48 176 0.0 2.0 0.00 0.00 0.00 90 1012.5
20260505081506 49 183 0.0 2.0 0.00 0.00 0.00 90 1012.5
20260505081007 49 183 0.0 2.0 0.00 0.00 0.00 89 1012.6
20260505080505 49 183 0.0 2.0 0.00 0.00 0.00 89 1012.5
20260505080006 49 183 0.0 2.0 0.00 0.00 0.00 89 1012.6
20260505075503 49 181 0.0 2.0 0.00 0.00 0.00 89 1012.7
20260505075004 50 217 0.0 2.0 0.00 0.00 0.00 89 1012.8
20260505074507 50 110 0.0 2.0 0.00 0.00 0.00 88 1012.8
20260505074004 50 110 0.0 2.0 0.00 0.00 0.00 88 1012.8
20260505073504 50 169 0.0 2.0 0.00 0.00 0.00 87 1012.7
20260505073008 51 169 1.0 2.0 0.00 0.00 0.00 88 1012.7
20260505072503 51 148 0.0 2.0 0.00 0.00 0.00 88 1012.7
20260505072003 51 148 0.0 2.0 0.00 0.00 0.00 88 1012.7
20260505071508 51 148 0.0 2.0 0.00 0.00 0.00 88 1012.7
20260505071003 51 164 0.0 2.0 0.00 0.00 0.00 88 1012.7
20260505070502 51 180 1.0 2.0 0.00 0.00 0.00 88 1012.7
20260505070005 51 278 0.0 2.0 0.00 0.00 0.00 88 1012.7
20260505065502 51 163 0.0 3.0 0.00 0.00 0.00 88 1012.7
20260505065005 51 199 1.0 3.0 0.00 0.00 0.00 88 1012.7
20260505064509 51 205 1.0 2.0 0.00 0.00 0.00 88 1012.6
20260505064005 51 192 0.0 3.0 0.00 0.00 0.00 88 1012.6
20260505063504 51 164 1.0 4.0 0.00 0.00 0.00 88 1012.6
20260505063012 51 201 1.0 3.0 0.00 0.00 0.00 88 1012.6
20260505062505 51 208 1.0 3.0 0.00 0.00 0.00 88 1012.6
20260505062005 51 203 1.0 4.0 0.00 0.00 0.00 88 1012.6
20260505061507 51 182 1.0 4.0 0.00 0.00 0.00 88 1012.6
20260505061006 51 177 1.0 3.0 0.00 0.00 0.00 88 1012.7
20260505060504 51 176 0.0 3.0 0.00 0.00 0.00 88 1012.7
20260505060022 51 173 1.0 3.0 0.00 0.00 0.00 88 1012.7
20260505055507 51 172 0.0 2.0 0.00 0.00 0.00 88 1012.7
20260505055003 51 168 1.0 2.0 0.00 0.00 0.00 88 1012.7
20260505054506 51 155 1.0 3.0 0.00 0.00 0.00 88 1012.7
20260505054006 51 165 1.0 3.0 0.00 0.00 0.00 88 1012.8
20260505053507 51 207 1.0 3.0 0.00 0.00 0.00 88 1012.8
20260505053010 51 169 1.0 4.0 0.00 0.00 0.00 88 1012.7
20260505052504 51 180 1.0 4.0 0.00 0.00 0.00 88 1012.7
20260505052005 51 179 1.0 3.0 0.00 0.00 0.00 87 1012.8
20260505051509 51 174 1.0 2.0 0.00 0.00 0.00 87 1012.8
20260505051007 51 171 1.0 4.0 0.00 0.00 0.00 87 1012.8
20260505050510 51 202 1.0 4.0 0.00 0.00 0.00 87 1012.8
20260505041511 51 155 1.0 3.0 0.00 0.00 0.00 87 1012.8
20260505041007 51 178 1.0 3.0 0.00 0.00 0.00 87 1012.8
20260505040506 51 160 1.0 4.0 0.00 0.00 0.00 86 1012.9
20260505040013 51 160 1.0 4.0 0.00 0.00 0.00 86 1013.1
20260505035511 51 167 1.0 2.0 0.00 0.00 0.00 86 1013.2
20260505035008 51 196 1.0 2.0 0.00 0.00 0.00 86 1013.2
20260505034515 51 167 1.0 2.0 0.00 0.00 0.00 86 1013.2
20260505034008 51 203 1.0 2.0 0.00 0.00 0.00 85 1013.3
20260505033506 51 201 0.0 2.0 0.00 0.00 0.00 85 1013.3
20260505033018 51 183 1.0 2.0 0.00 0.00 0.00 85 1013.3
20260505032508 51 179 0.0 2.0 0.00 0.00 0.00 85 1013.3
20260505032005 51 135 1.0 2.0 0.00 0.00 0.00 85 1013.3
20260505031509 51 179 1.0 2.0 0.00 0.00 0.00 85 1013.3
20260505031007 51 163 0.0 2.0 0.00 0.00 0.00 84 1013.3
20260505030507 51 163 0.0 2.0 0.00 0.00 0.00 84 1013.3
20260505030012 51 183 1.0 2.0 0.00 0.00 0.00 84 1013.4
20260505025505 51 181 0.0 2.0 0.00 0.00 0.00 83 1013.4
20260505025005 51 186 0.0 2.0 0.00 0.00 0.00 83 1013.4
20260505024513 51 167 0.0 2.0 0.00 0.00 0.00 83 1013.4
20260505024008 51 167 1.0 2.0 0.00 0.00 0.00 83 1013.5
20260505023506 51 147 1.0 2.0 0.00 0.00 0.00 82 1013.5
20260505023016 51 182 1.0 3.0 0.00 0.00 0.00 82 1013.5
20260505022508 52 163 1.0 3.0 0.00 0.00 0.00 82 1013.6
20260505022007 52 198 2.0 3.0 0.00 0.00 0.00 81 1013.5
20260505021517 52 204 2.0 3.0 0.00 0.00 0.00 81 1013.5
20260505021007 52 188 1.0 4.0 0.00 0.00 0.00 81 1013.6
20260505020506 52 166 2.0 4.0 0.00 0.00 0.00 81 1013.5
20260505020012 52 203 2.0 4.0 0.00 0.00 0.00 81 1013.4
20260505015507 52 174 1.0 5.0 0.00 0.00 0.00 80 1013.4
20260505015004 52 171 1.0 5.0 0.00 0.00 0.00 80 1013.3
20260505014508 52 165 2.0 4.0 0.00 0.00 0.00 80 1013.3
20260505014003 52 186 1.0 4.0 0.00 0.00 0.00 80 1013.2
20260505013502 52 169 1.0 4.0 0.00 0.00 0.00 80 1013.2
20260505013003 52 188 1.0 4.0 0.00 0.00 0.00 80 1013.1
20260505012502 52 170 2.0 5.0 0.00 0.00 0.00 80 1013.0
20260505012003 52 180 2.0 6.0 0.00 0.00 0.00 79 1012.9
20260505011506 52 192 2.0 6.0 0.00 0.00 0.00 78 1012.8
20260505011003 53 172 2.0 6.0 0.00 0.00 0.00 78 1012.7
20260505010503 53 165 2.0 7.0 0.00 0.00 0.00 77 1012.7
20260505010009 53 174 2.0 7.0 0.00 0.00 0.00 77 1012.6
20260505005504 53 195 2.0 4.0 0.00 0.00 0.00 76 1012.7
20260505005007 53 143 2.0 7.0 0.00 0.00 0.00 75 1012.6
20260505004528 53 174 2.0 7.0 0.00 0.00 0.00 75 1012.4
20260505004005 53 169 2.0 8.0 0.00 0.00 0.00 75 1012.4
20260505003510 52 158 2.0 8.0 0.00 0.00 0.00 75 1012.3
20260505003002 53 213 1.0 5.0 0.00 0.00 0.00 74 1012.2
20260505002503 53 167 2.0 5.0 0.00 0.00 0.00 74 1012.2
20260505002003 53 168 3.0 4.0 0.00 0.00 0.00 74 1012.1
20260505001504 53 179 2.0 5.0 0.00 0.00 0.00 73 1011.9
20260505001002 53 214 2.0 5.0 0.00 0.00 0.00 73 1011.6
20260505000504 52 224 3.0 6.0 0.00 0.00 0.00 72 1011.8
20260505000006 53 206 2.0 7.0 0.00 0.00 0.00 72 1011.7
20260504235506 53 158 1.0 7.0 0.00 0.00 0.00 71 1011.7
20260504235004 53 181 2.0 4.0 0.00 0.00 0.00 71 1011.6
20260504234525 53 176 1.0 6.0 0.00 0.00 0.00 70 1011.4
20260504234006 53 198 2.0 6.0 0.00 0.00 0.00 70 1011.5
20260504233507 53 158 2.0 6.0 0.00 0.00 0.00 70 1011.5
20260504233014 53 192 2.0 6.0 0.00 0.00 0.00 70 1011.5
20260504232508 53 189 1.0 6.0 0.00 0.00 0.00 69 1011.4
20260504232008 53 158 3.0 6.0 0.00 0.00 0.00 68 1011.4
20260504231511 54 178 2.0 5.0 0.00 0.00 0.00 68 1011.4
20260504231004 54 172 1.0 5.0 0.00 0.00 0.00 67 1011.3
20260504230503 54 169 1.0 6.0 0.00 0.00 0.00 67 1011.2
20260504230005 54 150 2.0 6.0 0.00 0.00 0.00 67 1011.3
20260504225507 55 171 2.0 6.0 0.00 0.00 0.00 65 1011.1
20260504225004 55 198 2.0 6.0 0.00 0.00 0.00 65 1011.2
20260504224507 55 174 2.0 6.0 0.00 0.00 0.00 64 1011.1
20260504224003 55 165 2.0 6.0 0.00 0.00 0.00 64 1011.1
20260504223507 55 143 3.0 6.0 0.00 0.00 0.00 63 1011.0
20260504223014 56 170 3.0 6.0 0.00 0.00 0.00 63 1011.0
20260504222508 56 213 3.0 6.0 0.00 0.00 0.00 63 1011.1
20260504222006 56 154 2.0 5.0 0.00 0.00 0.00 62 1010.9
20260504221518 56 172 2.0 5.0 0.00 0.00 0.00 61 1011.0
20260504221006 56 148 2.0 9.0 0.00 0.00 0.00 61 1010.9
20260504220507 56 219 2.0 9.0 0.00 0.00 0.00 63 1011.0
20260504220004 56 84 2.0 7.0 0.00 0.00 0.00 63 1011.1
20260504215504 56 132 3.0 6.0 0.00 0.00 0.00 62 1011.2
20260504215005 57 224 2.0 6.0 0.00 0.00 0.00 61 1011.1
20260504214514 56 167 2.0 5.0 0.00 0.00 0.00 62 1011.0
20260504214004 57 165 3.0 7.0 0.00 0.00 0.00 62 1011.1
20260504213506 57 213 3.0 7.0 0.00 0.00 0.00 62 1011.0
20260504213012 57 160 2.0 6.0 0.00 0.00 0.00 62 1011.1
20260504212508 57 146 2.0 6.0 0.00 0.00 0.00 61 1011.1
20260504212008 58 143 2.0 7.0 0.00 0.00 0.00 61 1011.2
20260504211516 58 173 3.0 6.0 0.00 0.00 0.00 59 1011.1
20260504211007 58 147 1.0 4.0 0.00 0.00 0.00 60 1011.1
20260504210507 58 151 2.0 4.0 0.00 0.00 0.00 59 1011.1
20260504210021 58 160 3.0 4.0 0.00 0.00 0.00 58 1011.1
20260504205510 59 183 1.0 6.0 0.00 0.00 0.00 59 1011.1
20260504205008 58 185 2.0 7.0 0.00 0.00 0.00 58 1010.9
20260504204505 59 132 3.0 7.0 0.00 0.00 0.00 57 1010.9
20260504204003 59 197 2.0 7.0 0.00 0.00 0.00 57 1011.0
20260504203503 59 174 3.0 7.0 0.00 0.00 0.00 56 1010.8
20260504203013 59 168 2.0 8.0 0.00 0.00 0.00 54 1010.8
20260504202504 60 74 3.0 8.0 0.00 0.00 0.00 54 1010.8
20260504202005 60 141 3.0 7.0 0.00 0.00 0.00 53 1010.7
20260504201514 61 154 2.0 6.0 0.00 0.00 0.00 53 1010.7
20260504201007 61 167 2.0 7.0 0.00 0.00 0.00 52 1010.6
20260504200511 61 186 3.0 7.0 0.00 0.00 0.00 49 1010.7
20260504200023 62 168 3.0 6.0 0.00 0.00 0.00 48 1010.7
20260504195509 62 194 2.0 4.0 0.00 0.00 0.00 49 1010.8
20260504195007 61 193 2.0 4.0 0.00 0.00 0.00 48 1010.8
20260504194521 61 198 3.0 9.0 0.00 0.00 0.00 49 1010.9
20260504194006 61 174 2.0 10.0 0.00 0.00 0.00 50 1010.8
20260504193508 61 179 3.0 10.0 0.00 0.00 0.00 51 1010.8
20260504193012 61 149 4.0 9.0 0.00 0.00 0.00 51 1010.9
20260504192503 61 191 4.0 9.0 0.00 0.00 0.00 51 1010.8
20260504192010 61 131 2.0 7.0 0.00 0.00 0.00 53 1010.9
20260504191513 61 161 2.0 7.0 0.00 0.00 0.00 53 1011.0
20260504191007 61 154 3.0 10.0 0.00 0.00 0.00 52 1011.3
20260504190505 62 172 5.0 10.0 0.00 0.00 0.00 50 1011.1
20260504190014 62 146 3.0 8.0 0.00 0.00 0.00 51 1011.3
20260504185506 62 171 2.0 6.0 0.00 0.00 0.00 51 1011.3
20260504185005 63 150 3.0 6.0 0.00 0.00 0.00 50 1011.4
20260504184521 62 192 2.0 11.0 0.00 0.00 0.00 52 1011.4
20260504184012 62 194 4.0 11.0 0.00 0.00 0.00 50 1011.3
20260504183509 62 160 3.0 10.0 0.00 0.00 0.00 51 1011.4
20260504183028 62 145 3.0 10.0 0.00 0.00 0.00 51 1011.3
20260504182509 62 203 3.0 9.0 0.00 0.00 0.00 50 1011.3
20260504182010 62 169 2.0 8.0 0.00 0.00 0.00 52 1011.3
20260504181510 62 144 3.0 6.0 0.00 0.00 0.00 52 1011.1
20260504181004 62 204 3.0 6.0 0.00 0.00 0.00 53 1011.1
20260504180507 62 223 2.0 5.0 0.00 0.00 0.00 53 1011.1
20260504180014 62 175 2.0 4.0 0.00 0.00 0.00 55 1011.1
20260504175507 62 186 2.0 7.0 0.00 0.00 0.00 56 1011.2
20260504175005 61 138 2.0 8.0 0.00 0.00 0.00 58 1011.3
20260504174518 61 202 2.0 8.0 0.00 0.00 0.00 58 1011.4
20260504174008 61 196 4.0 8.0 0.00 0.00 0.00 58 1011.3
20260504173510 61 195 3.0 7.0 0.00 0.00 0.00 59 1011.3